This is the latest recevied weather packets stored in our database for station/object DJ2DS-13. If no packets are shown the sender has not sent any weather packets the latest 10 day(s).
| Time | Temp. | Humidity | Pressure | Rain* | Wind** | Luminosity | Snow |
|---|---|---|---|---|---|---|---|
| 1777643210 | 22.78° C | 36% | 1023.4 hPa | 0 mm | - | 647 W/m² | - |
| 1777642911 | 22.78° C | 39% | 1023.3 hPa | 0 mm | - | 658 W/m² | - |
| 1777642611 | 22.78° C | 38% | 1023.4 hPa | 0 mm | - | 663 W/m² | - |
| 1777642309 | 22.22° C | 36% | 1023.7 hPa | 0 mm | - | 670 W/m² | - |
| 1777642011 | 22.22° C | 37% | 1023.7 hPa | 0 mm | - | 675 W/m² | - |
| 1777641711 | 22.22° C | 37% | 1023.7 hPa | 0 mm | - | 684 W/m² | - |
| 1777641410 | 22.22° C | 35% | 1023.7 hPa | 0 mm | - | 688 W/m² | - |
| 1777641109 | 22.22° C | 40% | 1023.7 hPa | 0 mm | - | 691 W/m² | - |
| 1777640809 | 22.22° C | 39% | 1023.8 hPa | 0 mm | - | 698 W/m² | - |
| 1777640509 | 22.22° C | 37% | 1024 hPa | 0 mm | - | 707 W/m² | - |
| 1777640210 | 22.22° C | 38% | 1023.9 hPa | 0 mm | - | 710 W/m² | - |
| 1777639910 | 22.22° C | 39% | 1024.1 hPa | 0 mm | - | 714 W/m² | - |
| 1777639609 | 21.67° C | 36% | 1024.2 hPa | 0 mm | - | 721 W/m² | - |
| 1777639310 | 21.67° C | 39% | 1024.2 hPa | 0 mm | - | 723 W/m² | - |
| 1777639008 | 21.67° C | 40% | 1024.4 hPa | 0 mm | - | 726 W/m² | - |
| 1777638708 | 21.67° C | 40% | 1024.5 hPa | 0 mm | - | 730 W/m² | - |
| 1777638408 | 21.67° C | 40% | 1024.6 hPa | 0 mm | - | 735 W/m² | - |
| 1777638108 | 21.67° C | 39% | 1024.7 hPa | 0 mm | - | 737 W/m² | - |
| 1777637806 | 21.67° C | 38% | 1024.7 hPa | 0 mm | - | 739 W/m² | - |
| 1777637506 | 21.67° C | 43% | 1024.8 hPa | 0 mm | - | 742 W/m² | - |
| 1777637208 | 21.11° C | 41% | 1024.8 hPa | 0 mm | - | 746 W/m² | - |
| 1777636908 | 21.11° C | 40% | 1025 hPa | 0 mm | - | 744 W/m² | - |
| 1777636606 | 21.67° C | 42% | 1024.9 hPa | 0 mm | - | 747 W/m² | - |
| 1777636305 | 21.67° C | 42% | 1025.1 hPa | 0 mm | - | 751 W/m² | - |
| 1777636005 | 21.11° C | 39% | 1025 hPa | 0 mm | - | 753 W/m² | - |
* Rain latest hour (hover to see other rain measurements)
** Current wind speed in m/s (hover to see current wind gust speed)